GW2669 Weather Reports


Display with metric or nautical units.
time (UTC)temp
F
wind
direction
speed
MPH
gust
MPH
rain 1hr
in
rain 24hr
in
rain mn
in
humidity
%
barometer
mb
20260502163055 60 119 4.0 10.0 0.00 0.16 0.00 57 1024.5
20260502161553 60 126 4.0 11.0 0.00 0.16 0.00 60 1024.5
20260502151602 58 109 3.0 11.0 0.00 0.16 0.00 63 1024.6
20260502123051 50 0 0.0 0.0 0.00 0.69 0.00 86 1023.1
20260502121551 49 0 0.0 0.0 0.00 0.69 0.00 87 1022.9
20260502114555 49 0 0.0 0.0 0.00 0.69 0.00 87 1022.5
20260502113056 49 0 0.0 0.0 0.00 0.69 0.00 86 1022.3
20260502111553 50 0 0.0 0.0 0.00 0.69 0.00 84 1022.2
20260502110100 51 0 0.0 0.0 0.00 0.69 0.00 84 1022.3
20260502104549 51 0 0.0 0.0 0.00 0.69 0.00 83 1022.4
20260502103055 52 0 0.0 0.0 0.00 0.69 0.00 84 1022.5
20260502101552 51 0 0.0 0.0 0.00 0.69 0.00 84 1022.5
20260502080105 52 348 2.0 5.0 0.00 0.70 0.00 84 1022.1
20260502070052 53 16 3.0 5.0 0.00 0.70 0.00 84 1022.0
20260502064600 53 28 4.0 8.0 0.00 0.70 0.00 84 1022.0
20260502063050 53 24 4.0 8.0 0.00 0.70 0.00 83 1022.0
20260502061545 53 11 4.0 6.0 0.00 0.70 0.00 84 1022.0
20260502060050 53 351 3.0 6.0 0.00 0.70 0.00 84 1022.1
20260502054557 53 355 3.0 6.0 0.00 0.70 0.00 84 1022.0
20260502053053 53 5 3.0 6.0 0.00 0.70 0.00 84 1022.0
20260502051551 53 21 4.0 7.0 0.00 0.70 0.00 83 1021.9
20260502050055 53 25 4.0 8.0 0.00 0.70 0.00 83 1022.0
20260502044550 53 34 3.0 6.0 0.00 0.70 0.70 83 1021.9
20260502043056 53 332 3.0 9.0 0.00 0.70 0.70 82 1021.5
20260502041554 53 338 5.0 9.0 0.00 0.70 0.70 82 1021.2
20260502034551 54 340 0.0 2.0 0.00 0.70 0.70 85 1020.7
20260502033052 54 38 2.0 5.0 0.01 0.70 0.70 84 1020.6
20260502031614 54 62 4.0 8.0 0.01 0.70 0.70 83 1020.4
20260502030052 54 58 6.0 12.0 0.05 0.70 0.70 84 1020.5
20260502024548 54 40 7.0 12.0 0.09 0.70 0.70 84 1020.1
20260502023054 54 65 8.0 14.0 0.11 0.69 0.69 85 1019.7
20260502021550 54 59 8.0 15.0 0.11 0.69 0.69 85 1019.1
20260502020106 54 64 8.0 13.0 0.07 0.65 0.65 84 1018.9
20260502014553 55 60 9.0 16.0 0.03 0.61 0.61 81 1018.5
20260502013050 56 74 11.0 18.0 0.02 0.58 0.58 81 1018.0
20260502011552 57 71 11.0 16.0 0.02 0.58 0.58 81 1017.7
20260502010049 57 71 7.0 13.0 0.02 0.58 0.58 82 1017.3
20260502004554 57 76 10.0 16.0 0.02 0.58 0.58 81 1016.9
20260502003052 58 71 9.0 16.0 0.00 0.56 0.56 79 1016.6
20260502001622 59 86 6.0 14.0 0.00 0.56 0.56 79 1016.4
20260502000047 59 91 7.0 11.0 0.01 0.56 0.56 80 1016.0
20260501234552 59 86 9.0 17.0 0.01 0.56 0.56 80 1015.9
20260501233104 59 83 11.0 16.0 0.01 0.56 0.56 81 1015.5
20260501231600 59 83 11.0 15.0 0.01 0.56 0.56 80 1015.2
20260501230101 60 84 10.0 16.0 0.00 0.55 0.55 80 1015.1
20260501224603 60 96 11.0 18.0 0.00 0.55 0.55 77 1014.6
20260501223054 60 90 11.0 19.0 0.00 0.55 0.55 75 1014.5
20260501221549 61 83 11.0 18.0 0.00 0.55 0.55 76 1014.3
20260501220051 62 85 12.0 19.0 0.00 0.55 0.55 75 1014.1
20260501214552 63 90 14.0 20.0 0.00 0.55 0.55 74 1014.1
20260501213051 61 101 13.0 19.0 0.00 0.55 0.55 78 1014.0
20260501211549 61 86 15.0 20.0 0.00 0.55 0.55 78 1014.0
20260501210057 61 86 17.0 22.0 0.00 0.55 0.55 77 1014.2
20260501204548 62 93 14.0 23.0 0.00 0.55 0.55 77 1014.1
20260501203051 62 90 15.0 21.0 0.00 0.55 0.55 78 1014.1
20260501201553 63 98 16.0 24.0 0.00 0.55 0.55 77 1014.0
20260501200051 62 92 15.0 24.0 0.00 0.55 0.55 79 1014.1
20260501194554 62 89 17.0 26.0 0.00 0.55 0.55 78 1014.1
20260501193048 61 86 13.0 21.0 0.00 0.55 0.55 80 1014.0
20260501191550 62 80 14.0 20.0 0.00 0.55 0.55 79 1013.9
20260501190046 64 88 12.0 18.0 0.00 0.55 0.55 76 1014.1
20260501184550 65 90 12.0 18.0 0.00 0.55 0.55 77 1014.2
20260501183050 63 74 11.0 19.0 0.00 0.55 0.55 79 1014.1
20260501181551 62 93 13.0 18.0 0.01 0.55 0.55 83 1014.1
20260501180055 60 85 9.0 14.0 0.01 0.55 0.55 90 1014.5
20260501174548 60 93 7.0 11.0 0.01 0.55 0.55 90 1015.0
20260501173048 59 86 5.0 8.0 0.01 0.55 0.55 90 1015.4
20260501171552 58 88 3.0 8.0 0.00 0.54 0.54 90 1015.6